Location: Spring Creek
(38.2870°N, 100.2160°W)
Time: 07:51:49
(UTC+00:00)

SPOT 5 - Pass Details

Date: 08 May 2021
Orbit: 623 x 815 km, 98.2° (Epoch: 18 June)

Event Time Altitude Azimuth Distance (km) Brightness Sun altitude
Exits shadow 04:20:36 76° 71° (ENE) 781 2.9 -26.0°
Drops below altitude 10° 04:25:44 10° 351° (N) 2,343 6.3 -26.6°
Sets 04:28:07 0° 350° (N) 3,297 7.3 -26.8°
